Location: Newark
(50.4348°N, 30.5552°E)
Time: 03:51:21
(UTC+00:00)

Altair - Pass Details

Date: 20 January 2020
Orbit: 1502 x 1682 km, 47.2° (Epoch: 17 February)

Event Time Altitude Azimuth Distance (km) Brightness Sun altitude
Rises 05:52:52 0° 182° (S) 4,881 10.6 -0.2°
Reaches altitude 10° 05:57:20 10° 165° (SSE) 3,918 10.5 0.4°
Maximum altitude 06:03:27 18° 127° (SE) 3,325 11.1 1.2°
Drops below altitude 10° 06:09:34 10° 89° (E) 3,947 10.6 2.0°
Sets 06:14:03 0° 73° (ENE) 4,931 10.7 2.6°
